User: anonymous   Login
Location: Dampvalley
(47.9094°N, 6.1967°E)
Time: 00:47:19
(UTC+00:00)
Language:

USA 267 - Orbit

View from above orbital plane
View from above orbital plane
View from above satellite
View from above satellite

Ground track
Ground track

The orbit data is extracted from the following two-line orbital elements,

1 41334U 16010A   21132.73998117 0.00000040  00000-0  71632-4 0    07
2 41334 122.9958 189.3436 0002815 324.3480  35.6519 13.41430313    09
Epoch (UTC): 12 May 2021 17:45:34
Eccentricity: 0.0002815
inclination: 122.9958°
perigee height: 1102 km
apogee height: 1106 km
right ascension of ascending node: 189.3436°
argument of perigee: 324.3480°
revolutions per day: 13.41430313
mean anomaly at epoch: 35.6519°
orbit number at epoch: 0

The dashed part of the orbit path shows where the satellite is in the earth's shadow,  

DLR